Home > Weather > Irving > Past weeks

Flag for U.S.A. Weather for the Past 2 Weeks in Irving, Texas, U.S.A.

Now
57 °F

Clear.


Feels Like: 56 °F
Forecast: 42 / 59 °F
Wind: 6 mph from Northeast

Location: Dallas / Fort Worth International Airport

Current Time: Feb 12, 2016 at 8:53:28 PM

Latest Report: Feb 12, 2016 at 7:53 PM


Visibility: 10 mi

Pressure: 30.30 "Hg

Humidity: 44%

Dew point: 35 °F

Location of IrvingLocation

Historic Weather in Irving — Graph

°F

Irving Temperature Yesterday

Maximum temperature yesterday: 74 °F (at 2:53 PM)
Minimum temperature yesterday: 45 °F (at 5:53 AM)
Average temperature yesterday: 60 °F

High & Low Weather Summary for the Past Weeks

 TemperatureHumidityPressure
High77 °F (Jan 29, 2:53 PM)90% (Jan 31, 4:53 AM)30.51 "Hg (Jan 31, 4:53 AM)
Low33 °F (Feb 4, 3:53 AM)12% (Feb 8, 4:53 PM)29.50 "Hg (Feb 1, 9:53 PM)
Average52 °F46%30.08 "Hg
* Reported Jan 28 6:53 PM — Feb 12 6:53 PM, Irving, Weather by CustomWeather, © 2016

Note: Actual official high and low records may vary slightly from our data, if they occured in-between our weather recording intervals... More about our weather records

Advertising

Irving Weather History for the Previous 24 Hours

 ConditionsComfort  
Time TempWeatherWind HumidityBarometerVisibility
6:53 PM
Fri, Feb 12
59 °FClear.7 mph41%30.29 "Hg10 mi
5:53 PM65 °FSunny.9 mph34%30.28 "Hg10 mi
4:53 PM69 °FSunny.12 mph29%30.25 "Hg10 mi
3:53 PM70 °FSunny.12 mph28%30.24 "Hg10 mi
2:53 PM70 °FSunny.10 mph28%30.24 "Hg10 mi
1:53 PM67 °FSunny.5 mph32%30.26 "Hg10 mi
12:53 PM65 °FSunny.12 mph34%30.28 "Hg10 mi
11:53 AM62 °FSunny.9 mph39%30.29 "Hg10 mi
10:53 AM57 °FPassing clouds.8 mph46%30.29 "Hg10 mi
9:53 AM53 °FSunny.5 mph51%30.28 "Hg10 mi
8:53 AM49 °FSunny.6 mph59%30.25 "Hg10 mi
7:53 AM45 °FPassing clouds.7 mph71%30.22 "Hg10 mi
6:53 AM42 °FPassing clouds.9 mph76%30.20 "Hg10 mi
5:53 AM44 °FClear.12 mph71%30.18 "Hg10 mi
4:53 AM45 °FClear.7 mph65%30.15 "Hg10 mi
3:53 AM46 °FClear.12 mph63%30.12 "Hg10 mi
2:53 AM48 °FClear.9 mph59%30.12 "Hg10 mi
1:53 AM49 °FClear.8 mph57%30.12 "Hg10 mi
12:53 AM50 °FClear.9 mph54%30.11 "Hg10 mi
11:53 PM
Thu, Feb 11
52 °FPassing clouds.8 mph53%30.11 "Hg10 mi
10:53 PM54 °FPassing clouds.7 mph51%30.10 "Hg10 mi
9:53 PM55 °FPassing clouds.9 mph51%30.10 "Hg10 mi
8:53 PM56 °FPassing clouds.6 mph49%30.10 "Hg10 mi
Weather by CustomWeather, © 2016

See weather overviewHow to use our weather pages